Flag for Germany Weather past 2 weeks in Regensburg, Bavaria, Germany

Now
37 °F

Overcast.


Feels Like: 37 °F
Forecast: 36 / 42 °F
Wind: 2 mph from North

Location: Hohenfels

Current Time: Dec 20, 2014 at 4:18:59 AM

Latest Report: Dec 20, 2014 at 3:58 AM


Visibility: N/A

Pressure: 30.22 "Hg

Humidity: 84%

Dew point: 33 °F

Location of RegensburgLocation

Historic Weather in Regensburg — Graph

°F

Regensburg temperature yesterday

Maximum temperature yesterday: 52 °F (at 1:58 PM)
Minimum temperature yesterday: 45 °F (at 11:01 PM)
Average temperature yesterday: 49 °F

Past Weeks' High & Low Weather Summary

 TemperatureHumidityPressure
High52 °F (Dec 19, 1:58 PM)100% (Dec 5, 4:58 PM)30.52 "Hg (Dec 5, 4:58 PM)
Low27 °F (Dec 8, 10:58 PM)54% (Dec 13, 1:58 PM)29.74 "Hg (Dec 12, 5:58 PM)
Average39 °F91%30.08 "Hg
* Reported Dec 5 2:58 AM — Dec 20 2:58 AM, Regensburg, Weather by CustomWeather, © 2014

Note: Actual official high and low records may vary slightly from our data, if they occured in-between our weather recording intervals... More about our weather records

Advertising

Regensburg weather history for previous 24 hours

 ConditionsComfort  
Time TempWeatherWind HumidityBarometerVisibility
2:58 AM
Dec 20
37 °FClear.7 mph84%30.21 "HgN/A
1:58 AM39 °FPassing clouds.3 mph81%30.18 "HgN/A
12:58 AM42 °FPassing clouds.12 mph76%30.15 "HgN/A
11:59 PM
Dec 19
45 °FMostly cloudy.8 mph87%30.09 "HgN/A
11:58 PM45 °FMostly cloudy.8 mph87%30.10 "HgN/A
11:02 PM45 °FPartly cloudy.10 mph93%30.05 "HgN/A
11:01 PM45 °FPartly cloudy.10 mph93%30.04 "HgN/A
9:58 PM46 °FLight rain. Partly cloudy.8 mph82%30.05 "HgN/A
8:58 PM48 °FRain. Mostly cloudy.6 mph87%30.02 "HgN/A
7:58 PM47 °FLight rain. Overcast.9 mph91%30.01 "HgN/A
6:58 PM48 °FLight rain. Overcast.7 mph87%30.00 "HgN/A
5:58 PM48 °FLight rain. Overcast.9 mph87%29.98 "HgN/A
4:58 PM48 °FLight rain. Passing clouds.12 mph84%29.99 "HgN/A
3:59 PM50 °FPartly sunny.13 mph71%29.97 "HgN/A
2:58 PM52 °FOvercast.14 mph66%30.00 "HgN/A
2:03 PM52 °FOvercast.12 mph67%29.99 "HgN/A
1:58 PM52 °FOvercast.13 mph68%30.00 "HgN/A
12:58 PM51 °FOvercast.9 mph72%30.02 "HgN/A
12:04 PM52 °FBroken clouds.13 mph72%30.03 "HgN/A
12:00 PM52 °FPartly sunny.10 mph72%30.03 "HgN/A
11:58 AM51 °FBroken clouds.10 mph73%30.04 "HgN/A
10:58 AM50 °FOvercast.7 mph76%30.06 "HgN/A
9:58 AM49 °FMostly cloudy.6 mph78%30.08 "HgN/A
8:59 AM48 °FMore clouds than sun.3 mph82%30.06 "HgN/A
7:58 AM49 °FOvercast.9 mph76%30.09 "HgN/A
6:58 AM49 °FMostly cloudy.8 mph80%30.08 "HgN/A
5:58 AM49 °FMostly cloudy.9 mph78%30.09 "HgN/A
4:58 AM50 °FMostly cloudy.9 mph81%30.08 "HgN/A
Weather by CustomWeather, © 2014

See weather overviewHow to use our weather pages